www.pogodaiklimat.ru

Погода и климат >> Архив погоды >> Турция >> Акхисар


ПОГОДА в Акхисаре

  • Прогноз погоды в Акхисаре
  • Монитор погоды в Акхисаре

АРХИВ ПОГОДЫ в Акхисаре

Время (UTC), дата Ветер
(напр.,м/с)
 
Видим.   Явления Облачность Т
(С)
Тd
(С)
f
(%)
Тe
(С)
Тes
(С)
Комфортность P
(гПа)
Po
(гПа)
Тmin
(С)
Tmax
(С)
R
(мм)
R24
(мм)
S
(см)
01 17.03 С 1 5000 м дымка ясно +4.4 +3.6 95 +4 +4 1018.2 1007.0
02 17.03 СЗ 1 7000 м дымка ясно +4.3 +3.8 97 +4 +4 1018.0 1006.8
03 17.03 З 1
{1}
5000 м дымка ясно +3.7 +3.2 97 +3 +3 1018.4 1007.2
04 17.03 З 1 7000 м дымка ясно +3.0 +2.7 98 +2 +2 1018.9 1007.6
05 17.03 СЗ 1 6000 м дымка 5/0
[Ac lent Ci fib]
+3.3 +3.0 98 +3 +3 1019.3 1008.0
06 17.03 штиль 0
{1}
6000 м дымка ясно +6.0 +4.3 89 +5 +9 1020.0 1008.7 +2.9
07 17.03 штиль 0 6000 м дымка ясно +10.1 +4.9 70 +10 +18 1020.2 1009.0
08 17.03 СЗ 1 13 км ясно +12.2 +5.8 65 +13 +25 опасность
простуды
1020.5 1009.3
09 17.03 ЮЗ 1
{2}
20 км ясно +14.4 +5.7 56 +16 +31 опасность
простуды
1020.2 1009.0
10 17.03 Ю 1 20 км ясно +16.9 +6.1 49 +18 +33 опасность
простуды
1019.7 1008.6
11 17.03 Ю 1 20 км ясно +18.1 +5.6 44 +20 +36 опасность
простуды
1019.2 1008.1
12 17.03 Ю 1
{3}
20 км ясно +19.2 +6.9 45 +21 +34 комфорт 1018.4 1007.3
13 17.03 ЮВ 1 20 км ясно +20.0 +7.3 44 +22 +30 комфорт 1017.8 1006.7
14 17.03 Ю 1 20 км ясно +21.3 +4.2 33 +22 +26 комфорт 1017.4 1006.3
15 17.03 Ю 1
{3}
зарница н/о +20.5 +4.8 36 +22 +24 комфорт 1017.3 1006.2
16 17.03 Ю 1 20 км ясно +19.1 +7.8 48 +21 +21 комфорт 1017.4 1006.3
17 17.03 ЮЗ 1 15 км ясно +15.6 +8.4 62 +17 +17 1017.6 1006.4
18 17.03 С 1
{3}
н/о +14.3 +8.7 69 +15 +15 1017.7 1006.5 +21.8 61
19 17.03 С 1 10 км ясно +12.5 +7.8 73 +13 +13 1017.7 1006.6
20 17.03 штиль 0 10 км ясно +11.2 +8.0 81 +11 +11 1018.0 1006.9
21 17.03 С 1
{1}
11 км ясно +10.1 +7.6 84 +11 +11 1018.0 1006.9
22 17.03 З 1 13 км ясно +8.9 +7.1 88 +9 +9 1018.0 1006.9
23 17.03 СВ 1 10 км ясно +8.5 +7.4 93 +9 +9 1018.1 1007.0
00 18.03 штиль 0
{1}
10 км ясно +7.9 +6.8 93 +7 +7 1017.9 1006.9
01 18.03 штиль 0 10 км ясно +7.0 +6.0 93 +6 +6 1017.4 1006.4
02 18.03 штиль 0 7000 м дымка ясно +6.3 +5.6 95 +5 +5 1017.2 1006.2
03 18.03 СЗ 1
{1}
9000 м дымка ясно +6.2 +5.8 97 +6 +6 1017.4 1006.4
04 18.03 штиль 0 6000 м дымка ясно +5.7 +5.2 97 +5 +5 1017.7 1006.6
05 18.03 штиль 0 10 км ясно +6.0 +5.8 99 +5 +6 1018.3 1007.1
06 18.03 штиль 0
{1}
10 км ясно +8.8 +6.4 85 +8 +12 1018.6 1007.5 +5.6
07 18.03 Ю 1 10 км ясно +12.5 +7.6 72 +13 +21 1018.8 1007.7
08 18.03 З 1 15 км ясно +15.7 +8.9 64 +17 +29 опасность
простуды
1018.5 1007.4
09 18.03 З 1
{2}
15 км ясно +17.7 +10.4 62 +19 +35 опасность
простуды
1018.0 1007.0
10 18.03 Ю 1 20 км ясно +19.8 +9.9 53 +23 +39 комфорт 1017.7 1006.7
11 18.03 ЮЗ 1 20 км ясно +21.3 +9.5 47 +23 +39 комфорт 1017.2 1006.2
12 18.03 В 1
{2}
20 км ясно +23.4 +6.9 35 +24 +36 комфорт 1016.4 1005.5
13 18.03 Ю 2 20 км ясно +23.9 +6.5 33 +24 +32 комфорт 1016.0 1005.1
14 18.03 ЮЗ 2 20 км ясно +23.9 +7.8 36 +24 +28 комфорт 1015.6 1004.6
15 18.03 ЮЗ 2
{4}
20 км ясно +22.6 +7.0 37 +23 +25 комфорт 1015.5 1004.5
16 18.03 ЮЗ 2 20 км ясно +20.4 +9.6 50 +23 +23 комфорт 1015.8 1004.8
17 18.03 ЮВ 1 20 км ясно +18.1 +9.5 57 +19 +19 1016.3 1005.2
18 18.03 В 1
{4}
20 км ясно +16.6 +10.3 66 +18 +18 1016.7 1005.6 +24.4
19 18.03 штиль 0 20 км ясно +16.2 +10.5 69 +16 +16 1017.1 1006.1
20 18.03 штиль 0 20 км ясно +13.6 +10.0 79 +13 +13 1017.3 1006.3
21 18.03 штиль 0
{3}
15 км ясно +11.4 +9.1 86 +11 +11 1017.5 1006.5
22 18.03 штиль 0 15 км ясно +10.1 +8.6 90 +9 +9 1017.4 1006.4
23 18.03 штиль 0 15 км ясно +9.5 +8.2 92 +9 +9 1017.5 1006.5
00 19.03 штиль 0
{3}
15 км ясно +8.6 +7.6 93 +8 +8 1017.2 1006.3
01 19.03 штиль 0 15 км ясно +8.1 +7.1 93 +7 +7 1016.8 1005.9
02 19.03 штиль 0 15 км ясно +7.5 +6.8 95 +6 +6 1016.9 1006.0
03 19.03 штиль 0
{1}
12 км ясно +7.2 +6.7 97 +6 +6 1017.1 1006.1
04 19.03 штиль 0 12 км ясно +6.5 +6.0 97 +5 +5 1017.4 1006.4
05 19.03 штиль 0 12 км 3/0
[Ci fib]
+6.9 +6.5 97 +6 +7 1018.0 1006.9
06 19.03 СЗ 1
{1}
20 км 3/0
[Ci fib]
+9.3 +6.9 85 +10 +13 1018.1 1007.0 +6.3
07 19.03 З 1 10 км 5/0
[Ci sp]
+12.2 +7.7 74 +13 +20 1017.9 1006.9
08 19.03 З 1 15 км 4/0
[Ac lent]
+15.3 +9.5 68 +17 +25 1017.7 1006.7
09 19.03 З 1
{2}
20 км 4/4 1140 м
[Cu med, cong]
+17.8 +8.9 56 +19 +28 1017.4 1006.4
10 19.03 ЮЗ 1 18 км 5/5 1000 м
[Cu med, cong]
+19.1 +9.9 55 +21 +30 комфорт 1017.0 1006.0
11 19.03 ЮЗ 1 20 км 4/4 1000 м
[Cu med, cong]
+21.4 +10.5 50 +23 +33 комфорт 1016.5 1005.5
12 19.03 З 1
{2}
20 км 5/3 1200 м
[Cu med, cong Ci sp]
+21.5 +9.0 45 +23 +31 комфорт 1016.0 1005.0
13 19.03 ЮЗ 1 20 км 6/0
[Cs]
+22.2 +8.2 41 +23 +31 комфорт 1015.8 1004.8
14 19.03 ЮЗ 1 20 км 5/0
[Ci sp]
+22.5 +6.5 36 +23 +27 комфорт 1015.5 1004.5
15 19.03 ЮЗ 1
{3}
20 км 3/0
[Ci fib]
+21.9 +8.3 42 +23 +25 комфорт 1015.4 1004.4
16 19.03 ЮЗ 1 20 км ясно +19.8 +10.2 54 +22 +22 комфорт 1015.7 1004.7
17 19.03 З 1 20 км ясно +18.0 +10.6 62 +19 +19 1016.4 1005.3
18 19.03 СЗ 1
{3}
15 км ясно +15.6 +10.6 72 +17 +17 1017.0 1005.9 +23.3
19 19.03 В 1 15 км ясно +14.0 +10.4 79 +15 +15 1017.6 1006.5
20 19.03 В 1 10 км ясно +13.1 +10.2 83 +14 +14 1018.3 1007.3
21 19.03 штиль 0
{1}
8000 м дымка ясно +12.4 +10.2 86 +12 +12 1018.6 1007.6
22 19.03 С 1 8000 м дымка ясно +11.7 +9.4 86 +12 +12 1018.7 1007.7
23 19.03 С 1 8000 м дымка ясно +11.2 +9.1 87 +12 +12 1018.7 1007.8
00 20.03 штиль 0
{1}
8000 м дымка ясно +9.8 +8.3 90 +9 +9 1018.5 1007.5
01 20.03 С 1 7000 м дымка ясно +9.1 +8.3 95 +9 +9 1018.3 1007.3
02 20.03 штиль 0 7000 м дымка ясно +8.8 +8.3 97 +8 +8 1018.1 1007.1
03 20.03 штиль 0
{1}
6000 м дымка ясно +8.3 +7.8 97 +7 +7 1018.3 1007.3
04 20.03 штиль 0 6000 м дымка ясно +7.9 +7.7 99 +7 +7 1018.4 1007.4
05 20.03 штиль 0 5000 м дымка 3/0
[Ci fib]
+7.1 +6.7 97 +6 +7 1019.0 1007.9
06 20.03 штиль 0
{1}
7000 м дымка 4/0
[Ci fib]
+11.1 +8.1 82 +11 +14 1019.3 1008.2 +7.1
07 20.03 штиль 0 10 км 4/0
[Ci fib]
+13.5 +9.0 74 +13 +21 1019.5 1008.4
08 20.03 Ю 1 11 км 4/0
[Ci fib]
+15.1 +10.5 74 +16 +26 1019.3 1008.3
09 20.03 В 1
{2}
18 км 4/0
[Ac lent Ci fib]
+17.7 +10.4 62 +19 +33 опасность
простуды
1018.8 1007.8
10 20.03 С 1 20 км 4/0
[Ac lent Ci fib]
+20.1 +10.2 53 +23 +38 комфорт 1018.2 1007.2
11 20.03 СЗ 2 20 км 5/0
[Ci fib]
+20.4 +10.5 53 +23 +34 комфорт 1017.8 1006.8
12 20.03 С 3
{5}
20 км 4/0
[Ci fib]
+21.7 +10.8 50 +24 +33 комфорт 1017.2 1006.3
13 20.03 С 3 20 км 4/0
[Ci fib]
+21.4 +9.9 48 +23 +29 комфорт 1017.0 1006.0
14 20.03 С 4 20 км 4/0
[Ac lent Ci fib]
+20.2 +9.1 49 +22 +24 комфорт 1016.8 1005.8
15 20.03 С 4
{8}
20 км 4/0
[Ac lent Ci fib]
+17.8 +8.4 54 +18 +18 1017.5 1006.4
16 20.03 С 3 20 км 4/0
[Ac lent Ci fib]
+15.6 +7.4 58 +15 +15 1018.3 1007.2
17 20.03 С 3 20 км 4/0
[Ac lent Ci fib]
+13.9 +6.5 61 +13 +13 1019.3 1008.1
18 20.03 С 3
{8}
20 км 5/1 1200 м
[Cu med, cong Ci fib]
+12.6 +5.5 62 +11 +11 1019.9 1008.8 +21.8
19 20.03 С 2 20 км 4/0
[Ci fib]
+11.7 +5.4 65 +11 +11 1020.4 1009.3
20 20.03 С 2 20 км 4/0
[Ci fib]
+11.0 +5.3 68 +10 +10 1020.7 1009.6
21 20.03 С 2
{8}
20 км 4/0
[Ci fib]
+10.3 +5.3 71 +9 +9 1021.2 1010.1
22 20.03 С 3 20 км 4/0
[Ci fib]
+10.0 +5.2 72 +8 +8 1021.4 1010.4
23 20.03 С 3 20 км 5/0
[Ci fib]
+9.6 +4.8 72 +8 +8 1021.6 1010.6
00 21.03 СЗ 1
{8}
20 км 5/0
[Ci fib]
+9.6 +4.6 71 +9 +9 1021.9 1010.9
01 21.03 С 3 20 км 5/0
[Ci fib]
+8.9 +4.3 73 +7 +7 1021.6 1010.6
02 21.03 С 3 20 км 5/0
[Ci fib]
+8.7 +3.7 71 +7 +7 1021.7 1010.7
03 21.03 С 4
{8}
20 км 4/0
[Ci fib]
+8.8 +2.8 66 +6 +6 1021.9 1010.8
04 21.03 С 5 20 км 4/0
[Ci fib]
+8.6 +2.2 64 +6 +6 1022.2 1011.1
05 21.03 С 4 20 км 8/1 1000 м
[Cu hum Ac trans Ci fib]
+8.5 +2.7 67 +6 +6 1023.2 1012.0
06 21.03 С 5
{9}
20 км 8/1 1200 м
[Cu hum Ac trans Ci fib]
+9.4 +3.2 65 +7 +8 1023.7 1012.5 +8.3
07 21.03 С 3 20 км 6/3 1000 м
[Cu hum Ci sp]
+11.0 +3.3 59 +9 +13 1024.1 1012.9
08 21.03 С 4 20 км 6/3 1000 м
[Cu hum Ci sp]
+12.1 +3.6 56 +11 +15 1024.1 1012.9
09 21.03 СЗ 5
{9}
20 км 6/3 1200 м
[Cu hum Ci sp]
+12.8 +3.4 53 +11 +16 1023.9 1012.7
10 21.03 С 5 20 км 6/3 1000 м
[Cu hum Ci sp]
+14.0 +4.0 51 +13 +18 1023.4 1012.2
11 21.03 С 5 20 км 8/3 1000 м
[Cu hum Ci sp]
+15.4 +4.1 47 +14 +18 1022.9 1011.8
12 21.03 С 4
{12}
20 км 6/3 1200 м
[Cu hum Ci sp]
+16.5 +4.4 45 +16 +21 1022.1 1011.0
13 21.03 С 5 20 км 5/1 1000 м
[Cu hum Ci fib]
+16.0 +4.0 45 +15 +18 1021.6 1010.5
14 21.03 С 5 20 км 5/1 1000 м
[Cu hum Ci fib]
+15.5 +4.2 47 +14 +16 1021.6 1010.5
15 21.03 С 6
{12}
20 км 4/0
[Ci fib]
+14.3 +4.0 50 +13 +13 1021.9 1010.7
16 21.03 С 5 20 км 3/0
[Ci fib]
+12.8 +4.2 56 +11 +11 1022.1 1010.9
17 21.03 С 5 20 км ясно +11.3 +4.3 62 +9 +9 1022.6 1011.4
18 21.03 С 4
{12}
20 км ясно +10.2 +4.4 67 +8 +8 1023.6 1012.3 +16.9
19 21.03 С 3 20 км ясно +9.6 +4.2 69 +7 +7 1024.2 1013.0
20 21.03 С 3 20 км 1/1 1000 м
[Cu hum]
+9.4 +4.2 70 +7 +7 1024.7 1013.5
21 21.03 С 3
{8}
20 км 1/1 1200 м
[Cu hum]
+8.9 +4.1 72 +7 +7 1024.8 1013.6
23 21.03 С 3 18 км ясно +8.3 +3.7 73 +6 +6 1025.1 1013.9
00 22.03 С 3
{9}
17 км ясно +8.1 +3.5 73 +6 +6 1025.1 1013.9
01 22.03 С 3 17 км 1/1 1000 м
[Cu hum]
+7.9 +3.3 73 +6 +6 1024.7 1013.5
02 22.03 С 2 20 км 1/1 1000 м
[Cu hum]
+7.9 +2.6 69 +6 +6 1024.5 1013.3
03 22.03 С 2
{6}
20 км 1/0
[Ac lent]
+7.6 +1.4 65 +6 +6 1024.6 1013.4
04 22.03 С 2 20 км 1/0
[Ac lent]
+7.6 +0.6 61 +6 +6 1024.8 1013.5
05 22.03 С 3 20 км ясно +7.3 +0.3 61 +5 +6 1025.1 1013.8
06 22.03 С 3
{6}
20 км ясно +9.0 +0.4 55 +7 +10 1025.4 1014.1 +7.2
07 22.03 С 3 20 км ясно +10.9 +1.4 52 +10 +16 1025.2 1013.9
08 22.03 С 3 20 км ясно +12.3 +1.8 49 +11 +19 1024.9 1013.7
09 22.03 С 3
{7}
20 км ясно +13.8 +2.9 48 +13 +25 опасность
простуды
1024.1 1012.9
10 22.03 С 4 20 км ясно +14.8 +3.5 47 +14 +24 1023.3 1012.1
11 22.03 С 4 20 км ясно +15.5 +3.2 44 +15 +23 1022.6 1011.4
12 22.03 С 4
{11}
20 км ясно +16.3 +2.9 41 +16 +23 1021.5 1010.4
13 22.03 С 4 20 км ясно +16.6 +2.8 40 +16 +21 1021.1 1010.0
14 22.03 СЗ 4 20 км ясно +16.5 +2.7 40 +16 +19 1020.6 1009.5
15 22.03 С 4
{9}
20 км ясно +15.6 +1.9 40 +15 +16 1020.3 1009.2
16 22.03 С 5 20 км ясно +14.1 +1.2 41 +13 +13 1020.4 1009.2
17 22.03 С 4 20 км ясно +12.3 0.0 43 +11 +11 1020.8 1009.6
18 22.03 С 4
{9}
20 км ясно +11.4 -0.8 43 +10 +10 1021.3 1010.1 +16.9
19 22.03 С 3 20 км ясно +10.5 -1.3 44 +9 +9 1021.2 1010.0
20 22.03 С 2 20 км ясно +10.0 -1.1 46 +9 +9 1021.3 1010.1
21 22.03 С 2
{7}
20 км ясно +9.6 -1.2 47 +9 +9 1021.2 1010.0
22 22.03 С 1 20 км ясно +9.0 -1.4 48 +9 +9 1020.8 1009.7
23 22.03 С 1 20 км ясно +8.4 -1.1 51 +8 +8 1021.0 1009.9
00 23.03 С 1
{7}
20 км ясно +7.8 -0.9 54 +7 +7 1021.0 1009.9
01 23.03 СЗ 1 20 км ясно +7.1 -0.8 57 +8 +8 1020.5 1009.4
02 23.03 СЗ 1 20 км ясно +7.0 -0.9 57 +8 +8 1020.1 1009.0
03 23.03 С 1
{3}
20 км ясно +6.6 -0.5 60 +6 +6 1020.2 1009.0
04 23.03 СЗ 1 20 км ясно +6.5 -0.9 59 +6 +6 1020.0 1008.8
05 23.03 С 1 20 км ясно +6.3 -0.6 61 +6 +7 1020.2 1009.0
06 23.03 С 1
{3}
20 км ясно +9.5 +0.3 53 +10 +15 1020.3 1009.1 +5.7
07 23.03 СЗ 1 20 км ясно +11.6 +0.3 46 +12 +20 1020.1 1008.9
08 23.03 С 1 20 км ясно +14.2 +1.7 43 +15 +27 опасность
простуды
1019.6 1008.5
09 23.03 С 3
{7}
20 км ясно +15.9 -0.4 33 +16 +26 1018.6 1007.5
10 23.03 С 4 20 км ясно +17.2 +0.6 33 +17 +27 1017.9 1006.8
11 23.03 С 4 20 км ясно +18.9 -0.1 28 +19 +29 1016.8 1005.8
12 23.03 С 4
{10}
20 км ясно +19.1 +1.0 30 +19 +27 1016.1 1005.1
13 23.03 С 4 20 км ясно +19.2 +1.9 32 +19 +24 1015.6 1004.6
14 23.03 С 4 20 км ясно +19.4 +3.0 34 +20 +22 1015.2 1004.2
15 23.03 С 5-12
{12}
20 км ясно +17.5 +2.9 38 +17 +18 1015.6 1004.5
16 23.03 С 4 20 км ясно +16.1 +2.7 41 +15 +15 1015.7 1004.6
17 23.03 С 4 20 км ясно +14.2 +3.3 48 +13 +13 1016.5 1005.3
18 23.03 С 3
{12}
20 км ясно +13.0 +2.5 49 +12 +12 1017.7 1006.6 +19.7
19 23.03 С 2 20 км ясно +12.7 +1.3 46 +12 +12 1017.9 1006.8
20 23.03 С 2 20 км ясно +11.5 +0.2 46 +11 +11 1018.3 1007.2
21 23.03 С 3-8
{8}
20 км ясно +12.2 -3.7 33 +11 +11 1018.5 1007.5
22 23.03 С 2 20 км ясно +11.3 -6.2 29 +11 +11 1018.5 1007.5
23 23.03 С 3 20 км ясно +9.4 -8.7 27 +8 +8 1018.2 1007.2
00 24.03 С 3
{8}
20 км ясно +8.7 -12.4 21 +7 +7 1017.9 1006.9

 

Местоположение метеостанции Акхисар (Турция): широта 38.92 долгота 27.85 высота над уровнем моря 93 м.

В архиве по умолчанию представлена погода в Акхисаре за последнюю неделю. Архивные данные за месяц целиком и за предыдущие месяцы, начиная с января 2011 года, Вы можете получить, выбрав интересующий диапазон дат из раскрывающегося списка и нажав кнопку "Ввод!".


*Определитесь, кто Вы:
робот инопланетянин человек

Внимание! Время в таблицах - всемирное. Для получения местного времени необходимо прибавить поправку, которая равна 2 ч.

Смотрите также архив погоды в соседних городах и на ближайших метеорологических станциях:

Погода в Манисе (Турция) (49 км)
Погода в Балыкесире (Турция) (78 км)
Погода в Измире (Турция) (80 км)
Погода в Измир / Сигли (Турция) (86 км)
Погода в Дикили (Турция) (86 км)
Погода в Измир аэропорту (Турция) (94 км)
Погода в Айвалыке (Турция) (108 км)
Погода в Митилини (Греция) (109 км)
Погода в Айдыне (Турция) (119 км)
Погода в Кушадасы (Турция) (128 км)

Пояснения к столбцам:

Ветер - указаны скорость ветра в м/с - средняя за 10 мин, порывы в срок и между сроками (в фигурных скобках) и направление, откуда дует ветер: С - северный, СВ - северо-восточный, В - восточный, ЮВ - юго-восточный, Ю - южный, ЮЗ - юго-западный, З - западный, СЗ - северо-западный.
Видимость - горизонтальная дальность видимости в метрах или километрах. При видимости от 1 до 10 км при отсутствии осадков обычно наблюдается дымка, при ухудшении видимости до 1 км и менее - туман. В сухую погоду видимость может ухудшаться дымом, пылью или мглою.
Явления - указаны атмосферные явления, наблюдавшиеся в срок или в последний час перед сроком; фигурными скобками обозначены явления, наблюдавшиеся между сроками (за 1-3 часа до срока); квадратными скобками обозначены град или гололедные отложения с указанием их диаметра в мм.
Облачность - указаны через наклонную черту общая и нижняя облачность в баллах и высота нижней границы облаков в метрах; квадратными скобками обозначены формы облаков: Ci - перистые, Cs - перисто-слоистые, Cc - перисто-кучевые, Ac - высококучевые, As - высокослоистые, Sc - слоисто-кучевые, Ns - слоисто-дождевые, Cu - кучевые, Cb - кучево-дождевые. Подробнее классификацию облаков см. в Атласе облаков (PDF).
T - Температура воздуха - температура, измеренная на высоте 2 м над землей.
Td - Температура точки росы - температура, при понижении до которой содержащийся в воздухе водяной пар достигнет насыщения.
f - Относительная влажность воздуха - влажноcть воздуха, измеренная на высоте 2 м над землей.
Te - Эффективная температура - температура, которую ощущает одетый по сезону человек в тени. Характеристика душности погоды. При расчете учитывается влияние влажности воздуха и скорости ветра на теплоощущения человека.
Tes - Эффективная температура на солнце - температура, которую ощущает человек, с поправкой на солнечный нагрев. Характеристика знойности погоды. Зависит от высоты солнца над горизонтом, облачности и скорости ветра. Ночью, в пасмурную погоду, а также при ветре 12 м/с и более поправка равна нулю.
P - Атмосферное давление - приведенное к уровню моря атмосферное давление.
Po - Атмосферное давление - измеренное на уровне метеостанции атмосферное давление.
Tmin - Минимальная температура - минимум температуры воздуха на высоте 2 м над землей.
Tmax - Максимальная температура - максимум температуры воздуха на высоте 2 м над землей.
R - Количество осадков - Количество выпавших осадков за период времени, мм. При наведении курсора мыши на число - период времени, за который выпало указанное количество осадков.
R24 - Количество осадков - Количество выпавших осадков за 24 часа, мм.
S - Снежный покров - Высота снежного покрова, см. При наведении курсора мыши на число - состояние снежного покрова и степень покрытия местности в баллах.